Weather History for MROC - August, 2012

Change the Weather History Date:

Sunday, August 5, 2012

  Actual Average Record
Temperature  
Mean Temperature 76 °F -  
Max Temperature 87 °F 80 °F 88 °F (2014)
Min Temperature 66 °F 64 °F 62 °F (1999)
Cooling Degree Days 12    
Growing Degree Days 26 (Base 50)    
Moisture  
Dew Point 63 °F    
Average Humidity 67    
Maximum Humidity 94    
Minimum Humidity 23    
Precipitation  
Precipitation 0.00 in 0.38 in - ()
Sea Level Pressure  
Sea Level Pressure 29.97 in    
Wind  
Wind Speed 6 mph ()    
Max Wind Speed 13 mph    
Max Gust Speed -    
Visibility 7.3 miles    
Events Fog    
Averages and records for this station are not official NWS values.
T = Trace of Precipitation, MM = Missing Value Source: Averaged Metar Reports

Daily Weather History Graph

Daily Weather History Graph

Search for Another Location

Airport or City:

Trip Planner

Search our weather history database for the weather conditions in past years. The results will help you decide how hot, cold, wet, or windy it might be!

Date:

Astronomy

Aug. 05, 2012 Rise Set
Actual Time 5:27 AM CST 5:58 PM CST
Civil Twilight 5:05 AM CST 6:20 PM CST
Nautical Twilight 4:39 AM CST 6:46 PM CST
Astronomical Twilight 4:13 AM CST 7:12 PM CST
Moon 8:37 PM CST (8/5) 8:19 AM CST (8/5)
Length of Visible Light 13h 15m
Length of Day
12h 31m
Waning Gibbous, 86% of the Moon is Illuminated
Aug 5
Waning Gibbous
Aug 9
Last Quarter
Aug 17
New
Aug 24
First Quarter
Aug 31
Full

Hourly Weather History & Observations

Time (CST) Temp. Heat Index Dew Point Humidity Pressure Visibility Wind Dir Wind Speed Gust Speed Precip Events Conditions
12:00 AM 69.8 °F - 62.6 °F 78% 30.01 in 6.2 mi ENE 3.5 mph - N/A   Scattered Clouds
1:00 AM 69.8 °F - 64.4 °F 83% 30.02 in 6.2 mi East 3.5 mph - N/A   Scattered Clouds
2:00 AM 69.8 °F - 64.4 °F 83% 30.00 in 6.2 mi SE 2.3 mph - N/A   Scattered Clouds
3:00 AM 68.0 °F - 60.8 °F 78% 29.99 in 6.2 mi NE 4.6 mph - N/A   Scattered Clouds
4:00 AM 68.0 °F - 60.8 °F 78% 29.97 in - NE 4.6 mph - N/A   Clear
5:00 AM 69.8 °F - 60.8 °F 73% 29.97 in - ESE 6.9 mph - N/A   Clear
6:00 AM 71 °F - 61 °F 63% 29.84 in 12 mi ESE 11.5 mph - -   Scattered Clouds
6:00 AM 71.6 °F - 60.8 °F 69% 29.97 in 6.2 mi ESE 11.5 mph - N/A   Scattered Clouds
7:00 AM 73.4 °F - 60.8 °F 65% 30.00 in 6.2 mi ESE 10.4 mph - N/A   Scattered Clouds
8:00 AM 77.0 °F - 60.8 °F 57% 30.01 in 6.2 mi ESE 9.2 mph - N/A   Mostly Cloudy
9:00 AM 79 °F - 57 °F 37% 29.86 in 12 mi ESE 12.7 mph - -   Scattered Clouds
9:00 AM 78.8 °F - 57.2 °F 47% 30.02 in 6.2 mi ESE 12.7 mph - N/A   Mostly Cloudy
10:00 AM 82.4 °F 81.4 °F 53.6 °F 37% 30.01 in 6.2 mi East 9.2 mph - N/A   Scattered Clouds
11:00 AM 86.0 °F 84.5 °F 55.4 °F 35% 30.01 in 6.2 mi East 6.9 mph - N/A   Mostly Cloudy
12:00 PM 86 °F - 53 °F 23% 29.81 in 12 mi ESE 6.9 mph - -   Scattered Clouds
12:00 PM 86.0 °F 84.2 °F 53.6 °F 33% 29.99 in 6.2 mi ESE 6.9 mph - N/A   Mostly Cloudy
1:00 PM 86.0 °F - 51.8 °F 31% 29.99 in 6.2 mi SE 9.2 mph - N/A   Mostly Cloudy
2:00 PM 82.4 °F 85.4 °F 68.0 °F 62% 29.96 in 6.2 mi SSE 5.8 mph - N/A   Mostly Cloudy
2:09 PM 82.4 °F 85.4 °F 68.0 °F 62% 29.95 in 6.2 mi NE 5.8 mph - N/A   Mostly Cloudy
2:16 PM 82.4 °F 85.4 °F 68.0 °F 62% 29.95 in 6.2 mi NE 5.8 mph - N/A   Mostly Cloudy
3:00 PM 80 °F - 69 °F 62% 29.78 in 12 mi WSW 12.7 mph - -   Partly Cloudy
3:00 PM 78.8 °F - 69.8 °F 74% 29.95 in 6.2 mi WSW 12.7 mph - N/A   Scattered Clouds
5:00 PM 75.2 °F - 69.8 °F 83% 29.97 in 6.2 mi SW 10.4 mph - N/A   Scattered Clouds
6:00 PM 72 °F - 69 °F 88% 29.83 in 9 mi SW 6.9 mph - -   Overcast
6:00 PM 73.4 °F - 69.8 °F 88% 30.00 in 6.2 mi SW 6.9 mph - N/A   Mostly Cloudy
7:00 PM 71.6 °F - 69.8 °F 94% 30.02 in 6.2 mi SW 6.9 mph - N/A   Mostly Cloudy
8:00 PM 71.6 °F - 68.0 °F 88% 30.03 in 6.2 mi WSW 5.8 mph - N/A Fog Mostly Cloudy
9:00 PM 71 °F - 67 °F 84% 29.88 in 12 mi NW 2.3 mph - - Fog Patches of Fog
9:00 PM 71.6 °F - 68.0 °F 88% 30.05 in 6.2 mi NW 2.3 mph - N/A Fog Patches of Fog
10:00 PM 71.6 °F - 68.0 °F 88% 30.06 in 6.2 mi WNW 1.2 mph - N/A   Mostly Cloudy
11:00 PM 69.8 °F - 66.2 °F 88% 30.06 in 6.2 mi ESE 1.2 mph - N/A   Mostly Cloudy